Location: Newark
(41.1192°N, 81.5292°W)
Time: 05:27:57
(UTC+00:00)

N. Korean satellite - Pass Details

Date: 16 November 2019
Orbit: 456 x 506 km, 97.2° (Epoch: 07 December)

Event Time Altitude Azimuth Distance (km) Brightness Sun altitude
Rises 10:34:40 0° 25° (NNE) 2,616 10.5 -18.9°
Reaches altitude 10° 10:37:06 10° 41° (NE) 1,722 9.7 -18.4°
Maximum altitude 10:40:06 23° 95° (E) 1,109 9.3 -17.8°
Drops below altitude 10° 10:43:03 10° 149° (SSE) 1,695 9.9 -17.3°
Sets 10:45:25 0° 164° (SSE) 2,564 10.6 -16.9°
